AirNav   Jet Aviation Boston
 
 907 users online  

UT41 Glenmar Ranch Airport
Cedar Fort, Utah, USA

GOING TO CEDAR FORT?


FAA INFORMATION EFFECTIVE 24 MAY 2018

Location

FAA Identifier: UT41
Lat/Long: 40-20-21.8000N / 111-59-55.7740W
40-20.363333N / 111-59.929567W
40.3393889 / -111.9988261
(estimated)
Elevation: 5030 ft. / 1533 m (estimated)
Variation: 14E (1990)
From city: 6 miles E of CEDAR FORT, UT
Time zone: UTC -6 (UTC -7 during Standard Time)
Zip code: 84043

Airport Operations

Airport use: Private use. Permission required prior to landing
Activation date: 02/1994
Control tower: no
ARTCC: SALT LAKE CITY CENTER
FSS: CEDAR CITY FLIGHT SERVICE STATION
Attendance: UNATNDD
Wind indicator: yes
Segmented circle: no

Airport Communications

WX AWOS-3PT at PVU (15 nm SE): 135.175 (801-373-9782)
WX AWOS-3 at U42 (17 nm N): 134.425 (801-562-0271)

Nearby radio navigation aids

VOR radial/distance  VOR name  Freq  Var
FFUr309/4.7FAIRFIELD VORTAC116.6016E
PVUr285/14.7PROVO VOR/DME108.4015E
TCHr165/30.7WASATCH VORTAC116.8016E

Airport Services

Runway Information

Runway 15/33

Dimensions: 2600 x 60 ft. / 792 x 18 m
Surface: dirt
RUNWAY 15  RUNWAY 33
Traffic pattern: leftleft

Airport Ownership and Management from official FAA records

Ownership: Privately-owned
Owner: GLENN & MARIANNE SMITH
PO BOX 290104
PHELAN, CA 92329-0104
Phone 619-868-3839
Manager: GLENN SMITH
PO BOX 290104
PHELAN, CA 92329-0104
Phone 619-868-3839

Airport Operational Statistics

Aircraft based on the field: 3
Single engine airplanes: 3
    

Instrument Procedures

There are no published instrument procedures at UT41.

Some nearby airports with instrument procedures:

KPVU - Provo Municipal Airport (15 nm SE)
U42 - South Valley Regional Airport (17 nm N)
KTVY - Bolinder Field-Tooele Valley Airport (23 nm NW)
KSLC - Salt Lake City International Airport (27 nm N)
KHCR - Heber City Municipal Airport - Russ McDonald Field (27 nm E)
 
Loc | Ops | Rwys | IFR | FBO | Links
Com | Nav | Svcs | Stats | Notes

TAC Air
 
Area around UT41 (Glenmar Ranch Airport)
 
Road maps at: MapQuest Bing Google
 
Aerial photo
No photo
 
Sectional chart

 
Airport distance calculator
Flying to Glenmar Ranch Airport? Find the distance to fly.

From to UT41

Sunrise and sunset
Times for 17-Jun-2018
 Local
(UTC-6)
 Zulu
(UTC)
Morning civil twilight05:2511:25
Sunrise05:5911:59
Sunset20:5902:59
Evening civil twilight21:3203:32

Current date and time
Zulu (UTC)  17-Jun-2018 23:29:45
Local (UTC-6)  17-Jun-2018 17:29:45
 
METAR
KPVU 
15nm SE 
172256Z 24006KT 10SM SCT120 29/10 A2968 RMK AO2 LTG DSNT E SLP988 T02940100
KU42 
17nm N 
172315Z AUTO 19019G25KT 10SM SCT110 31/08 A2966 RMK AO1 T03110081
KTVY 
23nm NW 
172315Z AUTO 20019G30KT 10SM SCT120 32/03 A2965 RMK AO2
KSLC 
27nm N 
172254Z 19011KT 10SM FEW090 SCT120 BKN150 32/04 A2962 RMK AO2 SLP963 VIRGA DSNT N TCU OHD AND DSNT NE-S T03170044
KHCR 
27nm E 
172315Z AUTO 06005KT 10SM CLR 25/12 A2975 RMK AO2
TAF
KPVU 
15nm SE 
171744Z 1718/1818 14006KT P6SM FEW080 BKN120 FM172100 16011KT P6SM VCSH SCT080 BKN120 FM180100 15006KT P6SM SCT120
NOTAMs
Click for the latest NOTAMs
NOTAMs are issued by the DoD/FAA and will open in a separate window not controlled by AirNav.

 

 
 

Would you like to see your business listed on this page?

 If your business provides an interesting product or service to pilots, flight crews, aircraft, or users of the Glenmar Ranch Airport, you should consider listing it here.  To start the listing process, click on the button below
 
Add a business
 

Other Pages about Glenmar Ranch Airport

Update a link
 
Copyright © AirNav, LLC. All rights reserved. Privacy Policy  Contact